Dewpoint
27 21 18 15 11 19 18 21 14 23 23 20 20 18 17 16 15 17 19 24 24 18 17 18 19 19 19 19 17 17 17 18 20 20 21 22 23 24 25 25 25 25 24 27 29 30 31 32 33 36 40 43 42 41 41 42 43 44 45 46 47 48 50 51 52 53 54 53 51 53 55 55 59 62 62 62 63 63 63 62 61 59 58 57 57 57
25 17 17 17 17 17 20 21 21 21 21 19 16 15 13 17 11 14 14 23 27 18 18 18 17 18 19 19 19 18 19 19 19 20 21 21 22 24 24 24 24 24 27 28 27 28 29 30 33 38 42 43 42 43 41 42 42 42 43 45 46 48 49 50 51 52 53 54 54 52 53 54 54 61 61 61 63 63 62 62 61 59 58 57 57 56
21 18 17 20 22 21 22 21 22 20 19 17 14 16 14 15 16 18 20 24 25 20 17 18 17 19 20 19 19 18 19 18 19 21 20 20 21 22 23 24 24 24 24 24 25 27 27 29 33 40 42 43 43 41 41 40 40 41 43 44 46 47 48 49 50 51 51 52 54 52 51 53 53 56 62 62 62 62 62 61 61 60 59 58 57 57
19 22 23 24 23 21 22 23 22 21 21 18 17 13 10 16 8 10 18 22 22 19 18 17 18 18 19 19 18 18 19 20 23 24 25 25 23 23 23 23 24 24 24 23 23 24 25 26 33 39 41 42 41 40 39 40 40 40 43 43 44 45 47 48 49 50 50 51 53 53 53 53 53 53 54 61 61 61 61 61 60 60 60 59 57 56
15 20 23 22 20 19 19 21 20 19 16 19 19 16 12 12 11 8 13 19 19 19 18 17 13 11 15 12 14 20 21 21 22 22 22 25 28 27 28 26 26 25 24 24 24 25 26 26 32 39 41 41 41 41 41 39 39 40 41 43 43 43 46 48 48 49 50 51 51 54 52 53 53 53 54 55 58 59 59 59 59 59 59 59 58 57
21 23 22 21 18 18 21 20 18 17 14 15 20 15 13 15 8 16 20 15 15 15 19 17 4 6 13 15 16 18 17 17 19 19 18 19 20 21 21 21 21 25 26 26 25 25 25 26 31 38 40 41 39 40 40 38 39 39 40 41 42 44 46 47 48 49 49 51 51 51 53 51 51 51 51 51 51 55 58 58 58 57 58 57 56 56
23 23 20 18 17 18 19 18 20 15 12 10 12 18 17 18 14 18 17 14 8 3 15 18 2 1 8 12 15 16 14 17 19 18 18 18 19 21 22 22 21 21 22 23 26 27 27 26 30 36 39 40 40 41 39 38 38 38 39 41 42 44 45 47 47 49 49 50 51 51 50 50 50 51 51 51 52 51 52 54 56 56 56 56 54 54
21 23 18 18 17 17 17 16 18 14 13 10 20 22 21 19 17 18 18 11 13 18 19 19 13 7 7 12 12 12 13 17 17 17 17 18 19 20 21 22 21 22 23 24 24 25 26 26 27 34 39 40 41 40 39 38 38 39 41 42 43 44 45 45 46 47 49 49 49 50 50 50 49 50 51 51 52 52 51 52 53 53 53 53 54 54
24 21 19 18 15 14 14 15 20 15 13 16 22 22 20 20 20 17 15 15 15 11 10 15 16 5 9 14 16 14 12 14 13 14 15 17 16 16 16 17 17 20 21 22 24 25 25 26 27 32 36 40 40 40 40 40 39 39 40 42 42 43 44 46 46 47 48 49 48 49 48 48 48 48 51 53 52 52 53 51 50 51 52 52 52 53
24 22 22 20 17 14 19 21 20 16 13 23 23 23 23 23 21 16 14 13 10 6 6 11 14 1 5 13 14 12 8 12 15 16 17 18 18 14 14 13 16 19 20 23 25 26 26 27 27 28 32 33 38 40 40 39 37 38 39 41 42 43 44 46 46 46 47 47 48 48 48 48 47 48 47 49 52 53 53 52 52 51 51 51 51 51
17 28 30 21 21 20 23 24 22 18 20 24 20 18 19 18 16 10 7 6 2 -0 6 7 13 5 1 11 14 7 12 15 16 14 15 16 15 16 21 18 18 20 22 23 25 26 26 27 29 29 29 29 33 36 38 38 38 37 39 40 42 43 44 45 45 45 46 46 47 48 48 49 48 47 48 46 47 47 51 52 52 52 52 52 52 52
19 22 21 24 29 24 24 23 24 25 24 21 14 12 10 10 11 6 -1 1 3 4 3 4 9 3 2 11 17 15 14 14 14 10 10 11 14 18 19 21 21 21 22 24 25 25 25 25 24 26 28 29 32 37 37 37 38 38 39 40 41 42 44 45 45 45 45 46 46 47 48 48 48 48 49 49 48 48 49 50 51 49 51 53 53 52
21 20 21 21 31 24 22 22 22 19 21 19 14 13 7 2 -2 -5 -1 -3 0 1 4 3 5 8 10 11 14 12 11 11 13 11 12 12 13 17 19 20 22 24 24 24 24 25 25 25 24 24 25 27 30 37 38 38 38 38 38 39 40 41 42 44 45 46 46 46 46 46 47 47 48 48 49 49 49 48 49 49 49 48 49 47 48 50
18 18 20 20 23 26 22 18 20 14 18 17 15 10 2 -5 -7 -8 -5 -6 -2 1 4 5 8 6 10 11 11 12 12 11 11 11 10 10 13 16 18 19 22 25 25 24 25 25 25 25 26 26 26 27 28 33 36 37 38 38 38 38 39 40 41 43 44 45 46 47 47 45 46 47 47 47 48 49 49 49 49 48 48 48 49 49 49 49
7 5 17 21 19 24 22 18 20 18 18 17 12 13 9 2 -4 -10 -7 -6 0 3 5 8 -2 4 3 16 11 13 12 12 12 12 13 13 14 17 19 21 23 24 25 26 25 26 25 26 26 27 28 28 29 30 35 37 38 38 39 39 39 38 40 42 43 44 45 46 47 46 46 46 46 47 47 48 49 49 49 48 48 48 47 48 48 49
15 11 15 21 24 25 23 23 23 21 18 14 13 15 8 5 11 -5 -1 -2 -1 1 -1 2 4 10 12 17 14 13 14 15 17 17 18 16 19 20 20 21 22 24 26 26 26 26 26 27 27 28 29 29 29 30 32 36 38 38 39 39 39 39 39 41 42 43 45 46 47 47 47 47 46 46 46 46 46 47 49 49 48 48 48 48 46 45
10 13 21 23 23 22 23 25 23 19 11 18 16 12 14 16 14 2 5 4 0 -1 3 6 10 11 11 5 4 6 7 8 12 13 17 17 19 22 20 22 23 24 25 26 27 26 26 26 28 29 29 30 30 30 31 33 38 39 39 38 38 38 37 39 41 42 43 43 45 46 47 47 47 46 46 46 46 46 47 48 48 48 48 48 47 46
14 12 18 21 22 23 25 26 24 25 19 17 12 16 17 17 15 9 -1 -3 -2 -1 2 7 4 4 1 6 16 12 10 12 12 12 13 16 20 20 21 23 24 25 25 26 26 27 27 28 28 29 30 30 30 30 30 31 34 38 39 39 39 38 38 38 39 40 41 42 43 45 46 48 48 48 47 46 45 45 46 47 47 47 46 47 46 46
22 10 14 15 21 23 25 24 23 24 24 19 17 18 13 5 3 7 2 -4 -5 -5 1 4 7 8 6 7 10 3 7 9 10 12 14 15 19 19 20 22 23 24 25 25 25 26 27 29 29 30 30 30 31 31 31 32 32 35 36 38 39 38 39 39 39 39 40 41 41 43 44 46 47 48 48 47 46 45 45 46 47 47 47 47 46 45
20 14 14 18 23 22 21 21 18 21 24 23 22 17 20 16 7 5 5 2 4 -2 -5 6 3 6 9 9 10 3 8 10 9 10 13 14 17 18 20 21 22 23 24 25 25 26 27 28 29 30 30 30 30 30 31 32 31 32 35 37 38 37 36 37 38 39 39 40 40 41 41 42 45 47 48 48 47 47 46 46 46 47 46 46 45 45
18 20 11 18 21 22 18 22 18 21 20 21 17 10 14 12 16 15 9 5 2 -3 -2 -1 3 7 12 11 11 5 6 8 9 10 12 13 15 18 19 21 22 22 23 24 25 26 27 28 29 30 31 31 30 30 30 31 32 32 33 35 36 37 37 37 38 38 39 40 40 40 40 41 43 45 46 47 47 47 47 46 46 46 46 46 45 45
18 16 12 19 20 19 18 22 21 22 22 21 20 17 17 16 8 3 7 15 5 1 3 -3 5 5 10 15 12 10 9 9 11 11 11 12 13 16 20 21 22 22 23 24 25 25 26 26 27 28 30 30 29 31 30 31 31 31 32 34 35 36 36 37 37 38 39 39 40 40 40 40 41 43 44 46 47 47 47 47 46 46 46 45 45 45
22 23 18 15 17 20 21 24 27 24 22 21 20 17 18 15 11 4 3 6 6 11 8 2 2 8 13 14 13 14 12 12 13 13 12 11 12 14 18 20 21 22 22 23 24 25 26 26 26 26 26 27 28 29 30 30 31 31 32 32 33 35 36 37 37 37 38 39 39 40 40 40 40 41 42 43 45 46 47 47 46 46 45 45 45 44
27 18 16 14 21 22 22 26 23 23 22 19 20 20 19 17 16 14 7 11 11 5 6 3 3 9 12 14 12 11 13 13 12 13 19 19 13 14 16 19 20 21 22 23 25 26 26 26 25 25 25 26 26 26 26 27 29 30 31 32 32 33 35 35 36 36 37 37 38 39 39 39 40 40 41 41 43 44 45 46 46 45 45 45 45 44
18 21 18 14 10 13 16 20 20 21 20 16 17 20 20 19 18 18 15 7 6 10 10 9 6 2 12 20 14 14 15 15 14 15 16 20 17 15 15 18 20 21 21 21 23 24 25 25 25 25 25 25 26 26 26 26 26 26 28 30 32 33 34 34 34 35 36 36 37 37 38 38 39 39 40 41 42 42 43 43 44 44 44 44 44 43
21 20 18 14 12 10 8 9 10 16 20 22 21 19 20 19 18 15 12 10 9 10 11 8 7 12 13 15 13 13 15 13 13 15 17 19 18 17 20 21 22 22 22 22 23 24 24 24 25 25 25 26 26 26 26 26 26 27 27 27 29 31 30 32 32 34 34 35 35 35 36 37 37 38 39 40 40 41 41 42 43 44 43 43 43 42
21 23 20 18 15 13 13 13 20 22 21 20 20 19 18 20 19 18 12 9 10 8 10 10 8 8 9 13 12 13 15 13 13 14 15 16 17 21 20 21 22 23 24 24 24 24 23 24 24 25 25 26 26 26 27 27 27 27 28 28 28 29 29 29 30 31 33 33 33 34 34 35 36 37 37 38 39 38 39 40 41 41 41 41 41 40
21 19 20 20 19 17 13 14 19 20 18 18 18 19 18 18 18 17 15 11 14 8 8 13 11 11 8 12 12 12 14 15 14 13 14 16 17 18 18 20 27 25 24 24 23 23 23 23 23 24 24 25 26 27 27 27 27 27 28 29 28 27 28 29 29 30 31 31 31 32 33 33 34 34 35 36 36 37 37 38 39 40 40 39 40 39
21 17 20 20 18 18 14 13 19 17 16 17 17 19 18 18 17 17 16 15 13 11 9 11 12 10 10 11 11 12 12 13 15 15 15 15 15 16 17 18 19 20 20 20 20 21 21 22 23 24 24 24 24 24 25 26 27 28 28 28 28 27 29 28 29 29 29 30 30 31 32 32 32 33 34 34 35 36 36 37 37 38 39 38 38 39
21 18 20 18 18 17 16 16 20 17 16 17 17 18 19 18 17 16 15 16 14 12 12 14 12 11 12 12 12 11 12 12 12 14 15 14 15 16 16 17 18 18 18 19 19 20 20 21 23 23 23 23 22 22 23 25 26 28 29 29 28 28 28 28 28 29 29 29 30 30 31 31 32 32 33 33 34 35 35 36 37 38 38 38 38 38
21 18 21 18 16 17 16 16 20 19 17 17 18 18 19 19 18 17 16 15 16 14 13 13 12 11 13 14 14 14 13 13 15 14 12 13 16 17 17 17 17 18 18 19 19 20 20 21 23 23 23 22 22 22 23 25 26 28 28 28 28 29 28 27 29 29 29 30 29 29 30 30 31 32 33 33 34 34 35 36 37 37 37 37 37 37
24 20 22 19 16 15 16 16 19 20 18 17 17 18 18 18 18 18 17 16 14 13 13 13 13 12 14 16 16 16 15 15 15 17 15 15 15 17 17 17 17 17 18 18 19 20 20 21 22 22 22 21 21 23 25 26 27 28 28 29 29 29 28 29 29 29 29 29 29 29 30 30 31 31 32 32 34 34 34 35 36 37 37 36 36 36
25 22 21 19 17 16 16 17 19 19 17 17 17 17 18 18 18 18 19 20 18 16 14 15 14 15 16 20 17 17 16 16 16 16 17 17 17 17 17 17 17 18 18 18 19 20 21 22 22 22 22 21 22 23 25 27 28 28 29 29 29 28 29 30 29 29 29 29 29 29 29 30 31 32 32 32 33 34 34 35 36 36 36 36 36 35
27 24 21 23 17 16 19 17 19 17 12 12 16 19 18 16 18 17 17 19 20 20 16 16 16 17 18 19 18 17 18 17 18 18 18 17 17 17 17 17 17 18 18 19 19 20 22 23 23 22 22 22 22 24 26 28 29 29 29 29 28 29 29 30 29 29 29 29 29 29 29 30 31 31 32 32 32 33 34 35 36 36 36 36 35 35
26 25 22 23 19 17 17 18 16 11 12 17 23 21 18 17 17 17 17 17 20 21 21 19 19 18 19 19 19 19 19 18 19 19 19 19 19 18 18 18 19 20 19 20 21 22 23 23 23 22 22 23 24 26 27 28 28 28 27 28 29 29 29 29 30 29 29 29 29 29 29 30 30 31 31 31 32 33 35 35 36 36 36 36 35 35
25 24 23 22 21 18 15 17 11 9 19 23 23 20 20 17 17 18 17 17 17 19 21 20 20 20 20 20 19 19 19 19 19 19 19 20 20 19 19 19 20 20 20 21 22 22 23 23 22 21 22 24 27 27 28 29 28 28 29 28 29 29 29 30 30 30 29 29 29 29 29 30 30 30 31 31 33 34 35 35 35 35 35 34 34 35
25 25 24 20 23 17 15 16 15 20 20 20 21 18 15 15 16 16 16 16 18 18 18 18 19 19 20 20 20 20 20 19 19 19 19 18 20 21 20 20 20 20 21 22 23 23 23 23 22 21 24 27 28 29 29 29 29 29 28 28 28 29 29 29 29 30 30 30 30 30 30 31 32 32 32 33 34 34 35 35 35 35 34 34 34 34
25 24 24 21 19 21 17 15 15 15 12 15 18 17 16 16 17 18 18 16 18 18 19 18 18 18 19 19 20 20 21 18 17 17 18 18 18 21 21 22 21 21 22 23 23 23 23 22 22 23 26 28 29 29 29 28 29 29 28 28 28 28 28 29 30 30 30 31 32 31 30 31 32 32 33 33 34 34 34 34 34 34 34 34 33 33
25 25 25 22 20 21 18 15 13 11 13 15 17 16 16 16 17 16 14 14 16 18 18 18 18 18 18 18 18 18 16 16 15 16 17 17 17 18 18 19 19 20 21 22 23 22 22 22 23 26 28 28 28 29 29 29 29 29 28 28 28 29 29 29 29 30 30 31 31 31 31 32 32 31 31 31 32 33 33 34 34 33 33 33 33 33
24 24 24 22 20 20 18 16 13 16 15 17 17 16 16 16 16 15 10 13 19 17 17 17 17 17 17 17 17 15 14 15 14 15 15 19 19 19 18 18 19 20 21 22 23 22 22 24 27 27 28 28 28 29 28 28 29 28 28 28 28 28 29 29 29 30 30 30 30 30 31 31 32 33 34 34 34 34 34 34 33 33 33 33 33 32
22 22 23 19 19 20 21 17 17 18 21 20 17 17 15 18 17 14 11 15 17 18 18 17 17 17 17 16 16 14 15 15 16 17 17 19 18 18 20 21 21 22 22 22 22 26 26 27 27 27 27 27 29 29 29 29 29 28 28 28 28 28 29 29 29 30 30 30 30 31 32 31 32 32 33 34 34 34 33 33 33 32 32 32 32 32
20 21 21 22 19 18 19 18 16 17 19 20 16 17 17 17 10 13 15 18 19 18 19 18 17 18 18 20 17 16 16 18 18 17 18 17 18 19 21 21 21 22 22 23 24 26 26 27 27 26 26 27 29 28 29 29 29 29 28 28 28 29 29 29 29 29 29 30 30 31 32 32 32 32 32 33 33 33 32 32 32 32 32 32 32 31
19 19 16 18 20 20 19 17 16 13 20 21 18 15 17 16 15 18 17 17 17 20 19 19 19 20 19 18 20 19 18 18 19 19 20 20 17 16 18 21 21 21 23 24 24 25 25 26 26 26 26 28 28 28 29 29 28 28 28 28 29 29 29 29 29 29 29 29 30 31 32 32 32 32 32 32 32 32 32 32 32 32 32 32 31 31
21 18 17 18 20 16 16 15 14 18 19 22 18 16 16 17 20 20 17 17 20 20 20 20 20 21 21 20 20 21 21 20 20 19 18 16 14 15 17 20 22 22 23 23 23 25 25 24 25 26 27 27 27 28 28 29 28 28 28 28 29 27 28 28 29 29 29 29 29 30 31 32 32 32 32 32 32 32 32 31 31 31 31 31 31 30
21 18 19 17 20 19 17 18 20 21 22 19 19 19 19 19 20 21 19 19 18 19 20 20 20 20 21 21 20 20 20 20 21 20 17 16 14 14 16 17 18 19 20 20 21 26 25 23 24 25 26 27 27 28 28 29 28 28 28 29 28 28 28 28 28 28 28 28 29 29 30 31 32 32 32 32 32 32 32 31 31 31 31 31 30 30
23 21 24 22 20 22 23 21 23 20 21 21 20 21 20 20 19 20 20 18 20 22 20 19 19 19 20 20 18 17 18 18 18 17 15 13 12 13 14 14 14 14 15 15 19 26 26 24 23 23 24 25 26 27 28 28 29 28 28 28 28 28 28 28 28 28 28 28 28 29 30 30 31 32 32 32 32 32 32 31 31 30 30 30 30 29
20 21 22 20 23 19 18 21 20 20 20 21 19 20 20 20 20 20 20 21 21 23 21 21 22 20 20 20 18 15 16 16 16 16 16 15 14 12 13 12 12 14 14 15 15 22 23 22 23 23 23 23 25 27 28 28 29 29 29 28 28 28 28 27 27 27 27 27 28 28 29 30 30 31 31 31 31 31 31 31 31 30 30 29 29 29
19 22 21 20 21 19 18 21 22 24 21 21 21 20 20 20 21 21 21 22 22 23 23 23 20 20 19 17 16 14 15 16 15 15 15 16 16 15 13 12 12 12 13 14 15 19 19 21 21 21 22 22 23 27 28 28 29 29 29 27 27 27 27 27 27 27 27 27 27 28 28 29 30 30 31 31 31 31 31 31 31 30 30 29 29 29
26 22 18 20 20 20 20 20 22 22 24 23 22 22 21 23 21 23 23 23 23 21 21 21 21 20 18 18 16 15 14 16 14 14 14 15 15 15 15 14 13 12 13 14 16 19 18 20 22 21 22 22 23 26 27 28 29 29 28 27 27 27 27 27 27 27 26 27 27 27 28 29 30 30 30 31 31 31 31 30 30 30 30 31 30 30
22 21 25 24 19 19 18 19 22 19 19 21 23 23 22 23 21 20 21 21 22 21 21 21 21 21 20 20 18 16 15 16 15 14 13 13 15 15 15 15 15 15 15 17 18 19 20 21 22 22 22 22 23 25 26 27 28 28 28 28 27 27 27 27 27 26 26 26 26 27 28 28 29 29 30 30 30 30 31 31 31 31 30 30 30 30
20 20 24 23 20 19 20 20 21 21 20 20 21 23 23 23 22 22 21 21 20 21 21 20 20 21 21 21 20 18 17 18 17 16 14 13 14 15 16 15 15 16 16 18 19 19 20 21 22 23 23 23 23 24 26 26 27 27 28 28 28 28 28 27 27 27 26 26 26 27 28 28 29 29 30 30 30 30 30 30 30 31 31 31 30 30